Regional Weather Roundup
Issued by NWS

Home | Current Version | Previous Version | Graphics & Text | Print | Product List | Glossary Off
Versions: 1 2 3 4 5 6 7 8 9 10 11 12 13 14 15 16 17 18 19 20 21 22 23 24 25 26 27 28 29 30 31 32 33 34 35 36 37 38 39 40 41 42 43 44 45 46 47 48 49 50

000
ASUS43 KMKX 201911
RWRWI

WISCONSIN REGIONAL WEATHER ROUNDUP
NATIONAL WEATHER SERVICE MILWAUKEE/SULLIVAN WI
100 PM CST THU NOV 20 2014

NOTE: "FAIR" INDICATES FEW OR NO CLOUDS BELOW 12,000 FEET WITH NO
SIGNIFICANT WEATHER AND/OR OBSTRUCTIONS TO VISIBILITY.

WIZ001-002-006>008-014>016-023>028-202000-
NORTHWEST WISCONSIN

CITY           SKY/WX    TMP DP  RH WIND       PRES   REMARKS
SUPERIOR ARPT  SUNNY     16   1  52 NW14      30.07R WCI   1
ASHLAND        LGT SNOW  12   2  64 W10G21    30.03R WCI  -1
HAYWARD        PTSUNNY   14   0  53 W9G17     30.00S WCI   2
SIREN          SUNNY     15  -1  49 W14       30.07S WCI   0
CUMBERLAND     SUNNY     12  -2  52 NW12G18   30.05R WCI  -2
RICE LAKE      SUNNY     13  -1  53 W13       30.07R WCI  -1
CHETEK         SUNNY     14   0  52 W9        30.06R WCI   2
LADYSMITH      PTSUNNY   15   2  58 W16G22    30.02S WCI  -1
EAU CLAIRE     SUNNY     14  -2  49 W13G23    30.07S WCI   0
MENOMONIE      SUNNY     16  -3  43 W14G20    30.08S WCI   2
NEW RICHMOND   SUNNY     15  -1  48 W16       30.10R WCI   0
OSCEOLA        SUNNY     16  -1  48 W10       30.14S WCI   3
$$

WIZ003>005-009-010-017-018-202000-
NORTH CENTRAL WISCONSIN

CITY           SKY/WX    TMP DP  RH WIND       PRES   REMARKS
MANITOWISH WTR PTSUNNY    9  -3  60 NW10G17   29.91R WCI  -6
ARBOR VITAE    CLOUDY    11   1  62 W12G18    29.91R WCI  -3
WOODRUFF       CLOUDY    11   1  62 W12G18    29.91R WCI  -3
RHINELANDER    CLOUDY     9  -2  61 W16G28    29.91R WCI  -8
EAGLE RIVER    PTSUNNY   11  -2  57 W15G22    29.88R WCI  -6
LAND O LAKES   CLOUDY    13   2  63 W12G18    29.88R WCI  -1
PHILLIPS       CLOUDY     8  -2  63 W9G17     29.95S WCI  -5
TOMAHAWK       CLOUDY    10   1  68 W9        29.94S HAZE    WCI  -3
MEDFORD        CLOUDY    12   0  59 W15G21    29.96R WCI  -4
MERRILL        CLOUDY    11  -1  58 NW12G18   29.95R WCI  -3
$$

WIZ029-030-035-036-043>047-202000-
CENTRAL WISCONSIN

CITY           SKY/WX    TMP DP  RH WIND       PRES   REMARKS
WAUSAU         CLOUDY    12   2  64 W15       29.95S WCI  -4
MOSINEE        PTSUNNY   12   3  67 W13G22    29.98R WCI  -3
MARSHFIELD     MOSUNNY   14   0  53 W16G25    29.99R WCI  -2
STEVENS POINT  PTSUNNY   13  -1  54 W13G22    29.99R WCI  -2
WAUPACA        MOSUNNY   19   2  47 W14G23    30.00R WCI   6
WAUTOMA        MOSUNNY   19   2  47 W21G29    30.01S WCI   3
WISC RAPIDS    SUNNY     16   0  49 NW14      30.02R WCI   2
CAMP DOUGLAS   SUNNY     19   1  45 W20G25    30.04R WCI   4
$$

WIZ011>013-019>022-031-037>040-048>050-202000-
NORTHEAST WISCONSIN

CITY           SKY/WX    TMP DP  RH WIND       PRES   REMARKS
ANTIGO         CLOUDY    10   0  63 W18       29.92R WCI  -8
SHAWANO        PTSUNNY   18   3  51 W13G20    29.97R WCI   5
OCONTO         SUNNY     19   3  49 W16G23    29.94S WCI   4
STURGEON BAY   MOSUNNY   19   1  45 W15G22    29.92R WCI   5
GREEN BAY      MOSUNNY   18   4  54 W20G25    29.97R WCI   2
MANITOWOC      SUNNY     21   5  50 W22G28    29.96S WCI   5
APPLETON       MOSUNNY   18   1  49 W20G25    29.97S WCI   1
CLINTONVILLE   CLOUDY    18   3  53 W18       29.97R WCI   2
OSHKOSH        MOSUNNY   19   4  51 W14G24    29.99S WCI   6
$$

WIZ032>034-041-042-053>061-202000-
SOUTHWEST WISCONSIN

CITY           SKY/WX    TMP DP  RH WIND       PRES   REMARKS
LA CROSSE      SUNNY     22   3  44 NW14      30.11R WCI   9
SPARTA         SUNNY     20   1  43 W15       30.07S WCI   7
VIROQUA        SUNNY     20  -1  39 W15G22    30.05R WCI   6
BOSCOBEL       SUNNY     24   3  40 W14G22    30.11S WCI  12
PRAIRIE DU CHI SUNNY     22   5  47 W14G23    30.13S WCI   9
PLATTEVILLE    SUNNY     22   9  56 W17G23    30.09F WCI   8
$$

WIZ056-057-062-063-064-067-068-202000-
SOUTH CENTRAL WISCONSIN

CITY           SKY/WX    TMP DP  RH WIND       PRES   REMARKS
REEDSBURG      SUNNY     21   1  42 W14G22    30.04S WCI   8
BARABOO/DELLS  SUNNY     21  -1  39 W15G21    30.02S WCI   7
LONE ROCK      SUNNY     27   2  34 W18G25    30.07S WCI  14
MINERAL POINT  SUNNY     25   3  39 W21G28    30.04S WCI  10
MADISON        MOSUNNY   23   1  38 NW13G23   30.03F WCI  11
MIDDLETON      SUNNY     26  -1  31 W15G23    30.03S WCI  13
WATERTOWN      MOSUNNY   22   4  46 W15G23    30.01S WCI   9
MONROE         SUNNY     23   5  46 W18G30    30.04S WCI   9
JANESVILLE     MOSUNNY   27   1  33 NW20G25   30.05S WCI  13
$$

WIZ051-052-058>065-066-070>072-202000-
SOUTHEAST WISCONSIN

CITY           SKY/WX    TMP DP  RH WIND       PRES   REMARKS
MILWAUKEE      MOSUNNY   23   3  42 W20       30.01S WCI   8
WAUKESHA       MOSUNNY   19   7  58 NW12G25   30.01R WCI   7
MILWAUKEE/TIMM SUNNY     21   5  49 W15G26    30.01S WCI   8
RACINE         SUNNY     24   5  44 W15G25    30.03S WCI  11
BURLINGTON     SUNNY     22   2  41 W18G28    30.03S WCI   8
KENOSHA        MOSUNNY   24   6  46 W18G28    30.02S WCI  10
FOND DU LAC    MOSUNNY   20   4  50 NW18G26   30.00R WCI   5
SHEBOYGAN      SUNNY     19   4  51 W20       29.98R WCI   3
WEST BEND      PTSUNNY   21   5  49 W17G26    29.99R WCI   7
JUNEAU         MOSUNNY   20   4  49 W14G24    30.02R WCI   7
$$

LSZ147-162-202000-
LAKE SUPERIOR

STATION/POSITION TIME  TEMP    WIND        PRES    WAVE
                       AIR SEA DIR/SP/G            HT/PER
                 (UTC) (F)     (DEG/KT/KT) (MB)    (FT/S)
DEVILS ISLAND    1900   13     300/ 18/ 25 1017.7R
PORT WING        1800   12     280/ 12/ 20 1016.9S
SAXON HARBOR     1840   13     270/  8/ 15 1016.3R
$$

LMZ867-665-643>646-202000-
LAKE MICHIGAN

STATION/POSITION TIME  TEMP    WIND        PRES    WAVE
                       AIR SEA DIR/SP/G            HT/PER
                 (UTC) (F)     (DEG/KT/KT) (MB)    (FT/S)
CHAMBERS ISLAND  1800   20     260/  5/ 14 1012.9R
N MID LAKE BUOY  1850   22 42  300/ 21/ 27 1012.4R   4/ 5
NORTHPORT PIER   1900   20     300/ 11/ 20 1012.5R
SISTER BAY       1728          330/ 20/ 23   N/A
ALGOMA LAKESHORE 1843          270/ 10/ 14   N/A
KEWAUNEE LAKESHO 1800   17     270/ 15/ 20 1013.0R
SHEBOYGAN LAKESH 1900   19 34  280/ 18/ 21 1016.7R
PORT WASHINGTON  1800   21     280/ 13/ 18 1016.6S
ATWATER BUOY     1800   23     260/ 17/ 21 1017.0R
MILWAUKEE LAKESH 1800   21     290/ 17/ 26   N/A
S MID LAKE BUOY  1850   24 43  280/ 19/ 27 1017.0R   6/ 6
KENOSHA   LAKESH 1900   23     270/ 18/ 24 1016.9R
$$

TC  - TEMPERATURE IN CELSIUS
VSB - VISIBILITY IN STATUTE MILES
WCI - WIND CHILL INDEX
HX  - HEAT INDEX



USA.gov is the U.S. government's official web portal to all federal, state and local government web resources and services.